Location: South Troy
(42.7009°N, 73.6726°W)
Time: 15:36:57
(UTC+00:00)

Meteor 1-31 Rocket - Pass Details

Date: 20 September 2024
Orbit: 486 x 508 km, 97.7° (Epoch: 09 October)

Event Time Altitude Azimuth Distance (km) Brightness Sun altitude
Rises 23:19:05 0° 176° (S) 2,565 6.1 -5.3°
Reaches altitude 10° 23:21:11 10° 181° (S) 1,683 5.3 -5.7°
Maximum altitude 23:24:44 53° 260° (W) 607 3.5 -6.4°
Drops below altitude 10° 23:28:17 10° 338° (NNW) 1,687 5.7 -7.0°
Sets 23:30:24 0° 343° (NNW) 2,571 6.6 -7.4°
